Погода в Борзом

Россия / Чеченская Республика     42°50′24″N   45°37′54″E
темп.,
°C
ветер,
м/с
пор.,
м/с
влажн.,
%
обл.,
%
осадки,
мм/ч
давл.,
гПа
погр.,
м
16 мая, вс
вс1600:00+10ю457646 0.0 101680
03:00+10ю457813 0.0 101592
06:00+12ю456914 0.0 1014146
09:00+21ю23341 0.0 10111218
12:00+24юз13240 0.0 10092589
15:00+24юз13241 0.0 10072548
18:00+19ююз23470 0.0 100867
21:00+11ю574840 0.0 1012124
17 мая, пн
пн1700:00+11ю57425 0.0 1011125
03:00+10ю57477 0.0 1010113
06:00+13ю46515 0.0 1010125
09:00+22ю24276 0.0 10071517
12:00+26юз23180 0.0 10063069
15:00+25ссз032499 0.0 10052797
18:00+20зсз1151100 0.0 100643
21:00+14ююв3362100 0.0 101053
18 мая, вт
вт1800:00+13ююв335882 0.0 100854
03:00+10ююз216511 0.0 100917
06:00+11с017935 0.1 1010134
09:00+14с327586 0.6 1009682
12:00+12с439282 1.8 1011452
15:00+10с229599 2.7 1013346
18:00+11с1187100 0.5 1013297
21:00+9ю119380 0.8 101599
19 мая, ср
ср1900:00+7ю228697 0.0 101519
03:00+7ю32784 0.0 101531
06:00+9ю236630 0.0 101564
09:00+18ссв22340 0.0 10121250
12:00+18с545129 0.1 10131397
15:00+15с337389 1.1 1015869
18:00+12с228491 0.3 1018268
21:00+10ююв118718 0.3 101913
20 мая, чт
чт2000:00+8ююв22860 0.0 101919
03:00+7юв22820 0.0 101920
06:00+10вюв11750 0.0 101988
09:00+19ссв23473 0.0 1015860
12:00+23с34394 0.0 10131699
15:00+22ссз34420 0.0 10131535
18:00+18с22661 0.0 1014130
21:00+13ю466715 0.0 101687